User: anonymous   Login
Location: Bittkow
(50.3000°N, 19.0000°E)
Time: 17:28:23
(UTC+00:00)
Language:

ASTEX 1 - Orbit

View from above orbital plane
View from above orbital plane
View from above satellite
View from above satellite

Ground track
Ground track

The orbit data is extracted from the following two-line orbital elements,

1  5560U 71089A   20330.80112469 +.00000139 +00000-0 +37472-4 0  9990
2  5560 092.7211 248.8049 0018376 104.5012 255.8232 14.48097025582870
Epoch (UTC): 25 November 2020 19:13:37
Eccentricity: 0.0018376
inclination: 92.7211°
perigee height: 719 km
apogee height: 745 km
right ascension of ascending node: 248.8049°
argument of perigee: 104.5012°
revolutions per day: 14.48097025
mean anomaly at epoch: 255.8232°
orbit number at epoch: 58287

The dashed part of the orbit path shows where the satellite is in the earth's shadow,  

DLR